[[{"header":{"parameterUnit":"m.s-1","parameterCategory":1,"la1":30.2991,"la2":30.254,"lo1":-89.0895,"lo2":-89.0444,"dy":0.0017,"dx":0.0017,"nx":28,"ny":28,"refTime":"2024-06-06T09:00:00:Z","depth":0,"parameterNumber":2,"parameterNumberName":"U-component_of_WINDS"},"data":[0,0,0,0,0,0,0,0,0,0,0,0,0,0,0,0,0,0,0,0,0,0,0,0,0,0,0,0,0,0,0,0,0,0,0,0,0,0,0,0,0,0,0,0,0,0,0,0,0,0,0,0,0,0,0,0,0,0,-1.0015,-1.0015,0,-1.0042,-1.0043,-1.0043,-1.0004,-1.0003,-1.0001,-1.0,-1.0026,-1.0028,-1.003,0,0,0,0,0,0,0,0,0,0,0,0,0,-0.9927,-0.9929,-1.0015,-1.0015,-1.0016,-1.0042,-1.0043,-1.0043,-1.0004,-1.0003,-1.0001,-0.9999,-1.0026,-1.0028,-1.0031,0,0,0,0,0,0,0,0,0,0,0,0,0,-0.9961,-0.9929,-1.0015,-1.0,-0.9999,-1.0042,-1.0043,-1.0043,-1.0005,-1.0003,-1.0001,-0.9999,-1.0025,-1.0028,-1.0031,-1.009,0,0,-1.004,-1.0041,0,0,0,0,0,0,0,0,-0.9959,-0.9964,-1.0002,-1.0001,-1.0,-1.0018,-1.0021,-1.0059,-1.0005,-1.0002,-1.0,-0.9998,-1.0025,-1.0028,-1.0038,-1.0092,-1.0093,-1.004,-1.0042,-1.0043,-1.0044,0,0,0,0,0,0,0,-0.9957,-0.9963,-1.0026,-1.0002,-1.0001,-0.9991,-0.9993,-1.0028,-1.0025,-1.0002,-1.0,-1.0003,-1.0024,-1.0035,-1.0038,-1.0093,-1.004,-1.0043,-1.0045,-1.0046,-1.0197,-1.0199,0,0,0,0,0,0,-0.9956,-0.9961,-1.0025,-1.0027,-0.9974,-0.9994,-0.9997,-1.0014,-1.0024,-1.0024,-1.0005,-1.0002,-1.0031,-1.0034,-1.0039,-1.0109,-1.0043,-1.0046,-1.0048,-1.0195,-1.0197,-1.02,0,0,0,0,0,0,-0.9955,-0.9963,-1.0024,-0.9993,-1.0,-0.9998,-1.0017,-1.0016,-1.0026,-1.0027,-1.0026,-1.0017,-1.0029,-1.0034,-1.0078,-1.0109,-1.0047,-1.005,-1.0192,-1.0195,-1.0198,-1.025,0,0,0,0,0,0,-0.9952,-0.9962,-0.9985,-0.9994,-1.0002,-1.0063,-1.0019,-1.0018,-1.0032,-1.0027,-1.0037,-1.0037,-1.0028,-1.0074,-1.0081,-1.0112,-1.0052,-1.0189,-1.0193,-1.0197,-1.0246,-1.0255,-1.0263,0,0,0,0,0,-0.9949,-0.9999,-0.9987,-0.9995,-1.0031,-1.0065,-1.007,-1.0059,-1.0034,-1.0057,-1.0057,-1.0037,-1.0105,-1.0078,-1.0086,-1.0119,-1.0187,-1.0192,-1.0197,-1.0242,-1.0253,-1.0263,0,0,0,0,0,0,-0.9993,-0.9999,-0.9986,-1.004,-1.0053,-1.0059,-1.0087,-1.0071,-1.0091,-1.0086,-1.0071,-1.0073,-1.012,-1.0124,-1.0094,-1.0177,-1.0142,-1.0148,-1.0173,-1.0184,-1.0192,-1.0191,-1.0055,0,0,0,0,0,-1.0009,-1.0037,-1.0041,-1.0088,-1.0095,-1.009,-1.0105,-1.0095,-1.0107,-1.0112,-1.0115,-1.0128,-1.0151,-1.0168,-1.019,-1.0246,-1.0247,-1.0272,-1.0281,-1.0288,-1.0294,-1.0324,-1.0335,-1.0216,-1.0216,-1.0216,0,0,-1.0043,-1.0049,-1.0068,-1.0097,-1.0105,-1.0134,-1.0095,-1.0127,-1.0148,-1.0117,-1.0158,-1.0161,-1.0173,-1.0223,-1.0245,-1.0228,-1.0327,-1.0294,-1.03,-1.0302,-1.033,-1.0341,-1.0351,-1.022,-1.0219,-1.0218,0,0,-1.0118,-1.0126,-1.0166,-1.0176,-1.0189,-1.0186,-1.0195,-1.0204,-1.0204,-1.0246,-1.0223,-1.0247,-1.0289,-1.0299,-1.0309,-1.0387,-1.0369,-1.0395,-1.044,-1.0469,-1.0478,-1.0487,-1.0515,-1.0525,-1.0401,-1.0401,-1.0401,0,-1.0158,-1.0201,-1.0189,-1.0223,-1.0236,-1.0209,-1.0249,-1.0258,-1.0278,-1.0288,-1.0267,-1.0319,-1.0326,-1.0377,-1.0396,-1.0406,-1.0416,-1.0394,-1.0478,-1.0486,-1.0494,-1.052,-1.0531,-1.0404,-1.0404,-1.0403,-1.0403,0,-1.0249,-1.0279,-1.031,-1.033,-1.0346,-1.0383,-1.0376,-1.0394,-1.0382,-1.0381,-1.0423,-1.0429,-1.0452,-1.0464,-1.0453,-1.0514,-1.0502,-1.0481,-1.0445,-1.0508,-1.0533,-1.0543,-1.0409,-1.0407,-1.0407,-1.0406,0,0,-1.0354,-1.0367,-1.0378,-1.0387,-1.04,-1.0422,-1.0457,-1.048,-1.0496,-1.051,-1.0539,-1.0574,-1.0554,-1.0566,-1.0556,-1.0581,-1.0643,-1.0556,-1.0556,-1.0572,-1.071,-1.0727,-1.074,-1.063,-1.0632,-1.0634,-1.0709,0,-1.043,-1.0491,-1.0481,-1.054,-1.0568,-1.0542,-1.0573,-1.0583,-1.0582,-1.0605,-1.0603,-1.0629,-1.06,-1.0607,-1.0631,-1.0631,-1.0671,-1.0625,-1.0657,-1.0658,-1.0656,-1.0752,-1.0771,-1.0842,-1.0719,-1.0721,-1.0722,0,-1.0527,-1.0545,-1.0608,-1.0616,-1.0627,-1.0654,-1.0674,-1.0696,-1.0707,-1.0704,-1.0718,-1.0703,-1.0737,-1.07,-1.0747,-1.0716,-1.0728,-1.0729,-1.0732,-1.0735,-1.0695,-1.0759,-1.0864,-1.0875,-1.0737,-1.0736,-1.0735,0,-1.0598,-1.0638,-1.068,-1.0689,-1.0699,-1.0719,-1.0724,-1.0733,-1.0747,-1.0764,-1.0773,-1.0793,-1.0805,-1.0821,-1.0811,-1.0785,-1.086,-1.0822,-1.0858,-1.0859,-1.0876,-1.0875,-1.0985,-1.0883,-1.0882,-1.0882,-1.0882,0,-1.0684,-1.0723,-1.0712,-1.0739,-1.0782,-1.0768,-1.0811,-1.0813,-1.0821,-1.0846,-1.0825,-1.0849,-1.0835,-1.0858,-1.0851,-1.0891,-1.0896,-1.0894,-1.0892,-1.0897,-1.0897,-1.0905,-1.09,-1.0885,-1.0884,-1.0884,-1.0883,0,-1.0771,-1.0765,-1.081,-1.0816,-1.0818,-1.085,-1.0854,-1.0878,-1.0875,-1.0908,-1.0915,-1.091,-1.0936,-1.0928,-1.0956,-1.0951,-1.1001,-1.0992,-1.0998,-1.0996,-1.1033,-1.1029,-1.1153,-1.1168,-1.1055,-1.1056,-1.1057,0,-1.0827,-1.0856,-1.0865,-1.0881,-1.0888,-1.0914,-1.0928,-1.0916,-1.0932,-1.0946,-1.0969,-1.0993,-1.1011,-1.1054,-1.1052,-1.1073,-1.1065,-1.1107,-1.1068,-1.1072,-1.1066,-1.1065,-1.1068,-1.1115,-1.1116,-1.1117,-1.1118,0,-1.0926,-1.0922,-1.0944,-1.0965,-1.0983,-1.0999,-1.1013,-1.1027,-1.1015,-1.1034,-1.106,-1.1075,-1.1103,-1.1127,-1.1146,-1.115,-1.1132,-1.113,-1.1139,-1.1145,-1.1147,-1.1147,-1.1019,-1.1127,-1.1126,-1.1126,-1.1125,-1.1125,-1.1,-1.1025,-1.1035,-1.106,-1.1069,-1.1083,-1.1106,-1.1105,-1.1127,-1.115,-1.1141,-1.1171,-1.1181,-1.1204,-1.1211,-1.1234,-1.1218,-1.1232,-1.1235,-1.1239,-1.1244,-1.1143,-1.1237,-1.1237,-1.1237,-1.1237,-1.1236,0,-1.1099,-1.1104,-1.1127,-1.1147,-1.1167,-1.1148,-1.1162,-1.118,-1.1207,-1.1217,-1.1236,-1.1266,-1.1289,-1.129,-1.1311,-1.1329,-1.1322,-1.1335,-1.1334,-1.1336,-1.1257,-1.1247,-1.1341,-1.1341,-1.1341,-1.1341,-1.1341,-1.1341,-1.1152,-1.1194,-1.1191,-1.1236,-1.1241,-1.1271,-1.1281,-1.1293,-1.1301,-1.1336,-1.1355,-1.1355,-1.1361,-1.1383,-1.1403,-1.1402,-1.1411,-1.1428,-1.1425,-1.1351,-1.1341,-1.1331,-1.1322,-1.143,-1.143,-1.1501,-1.1502,-1.1502]},{"header":{"parameterUnit":"m.s-1","parameterCategory":1,"la1":30.2991,"la2":30.254,"lo1":-89.0895,"lo2":-89.0444,"dy":0.0017,"dx":0.0017,"nx":28,"ny":28,"refTime":"2024-06-06T09:00:00:Z","depth":0,"parameterNumber":3,"parameterNumberName":"V-component_of_WINDS"},"data":[0,0,0,0,0,0,0,0,0,0,0,0,0,0,0,0,0,0,0,0,0,0,0,0,0,0,0,0,0,0,0,0,0,0,0,0,0,0,0,0,0,0,0,0,0,0,0,0,0,0,0,0,0,0,0,0,0,0,-1.9256,-1.9256,0,-1.933,-1.9331,-1.9332,-1.9321,-1.932,-1.9319,-1.9318,-1.9393,-1.9396,-1.9399,0,0,0,0,0,0,0,0,0,0,0,0,0,-1.9103,-1.9106,-1.9256,-1.9257,-1.9257,-1.933,-1.9331,-1.9332,-1.9321,-1.932,-1.9318,-1.9317,-1.9392,-1.9396,-1.94,0,0,0,0,0,0,0,0,0,0,0,0,0,-1.9173,-1.9107,-1.9255,-1.9261,-1.9262,-1.933,-1.9331,-1.9332,-1.9322,-1.932,-1.9318,-1.9316,-1.9391,-1.9396,-1.94,-1.9467,0,0,-1.9415,-1.9417,0,0,0,0,0,0,0,0,-1.9169,-1.9178,-1.9259,-1.9261,-1.9262,-1.9314,-1.9305,-1.9377,-1.9322,-1.9299,-1.9318,-1.9315,-1.9369,-1.9375,-1.9393,-1.9471,-1.9474,-1.9415,-1.9418,-1.942,-1.9422,0,0,0,0,0,0,0,-1.9164,-1.9175,-1.9285,-1.926,-1.9262,-1.9259,-1.9267,-1.9319,-1.9343,-1.9301,-1.93,-1.9309,-1.9369,-1.9389,-1.9395,-1.9475,-1.9415,-1.9419,-1.9422,-1.9424,-1.961,-1.9612,0,0,0,0,0,0,-1.9158,-1.9171,-1.9283,-1.9287,-1.921,-1.9264,-1.9272,-1.93,-1.9343,-1.9348,-1.9311,-1.9309,-1.9381,-1.9389,-1.9397,-1.9478,-1.942,-1.9425,-1.9427,-1.9608,-1.9611,-1.9613,0,0,0,0,0,0,-1.9155,-1.9168,-1.928,-1.9229,-1.9243,-1.9268,-1.9299,-1.9302,-1.9322,-1.935,-1.9355,-1.9326,-1.938,-1.9391,-1.945,-1.9481,-1.9427,-1.9431,-1.9606,-1.9609,-1.9612,-1.964,0,0,0,0,0,0,-1.915,-1.9167,-1.9193,-1.923,-1.9246,-1.9331,-1.9301,-1.9305,-1.933,-1.9328,-1.9366,-1.9371,-1.9379,-1.9443,-1.9454,-1.9486,-1.9435,-1.9603,-1.9607,-1.9611,-1.9637,-1.9644,-1.965,0,0,0,0,0,-1.9145,-1.9198,-1.9194,-1.9208,-1.9279,-1.9333,-1.9342,-1.9352,-1.9332,-1.9358,-1.9377,-1.9369,-1.9475,-1.9449,-1.9462,-1.9496,-1.9601,-1.9606,-1.9611,-1.9634,-1.9643,-1.965,0,0,0,0,0,0,-1.9163,-1.9203,-1.9199,-1.9265,-1.9296,-1.9331,-1.9364,-1.9361,-1.9397,-1.9394,-1.9403,-1.9412,-1.9472,-1.949,-1.9459,-1.9562,-1.9536,-1.9543,-1.9549,-1.9557,-1.9564,-1.9558,-1.9439,0,0,0,0,0,-1.9175,-1.9216,-1.9248,-1.9304,-1.9319,-1.9339,-1.9363,-1.9368,-1.94,-1.9412,-1.9435,-1.9466,-1.9506,-1.9533,-1.9571,-1.9639,-1.9647,-1.9669,-1.9675,-1.9681,-1.9687,-1.9724,-1.9734,-1.9629,-1.9628,-1.9628,0,0,-1.92,-1.9226,-1.9252,-1.9308,-1.9332,-1.9374,-1.935,-1.9395,-1.9427,-1.9419,-1.9476,-1.9494,-1.9529,-1.9593,-1.9622,-1.961,-1.9718,-1.9687,-1.9691,-1.9695,-1.973,-1.974,-1.9749,-1.9632,-1.9631,-1.9631,0,0,-1.9267,-1.9291,-1.934,-1.9364,-1.9401,-1.9414,-1.9426,-1.9462,-1.9473,-1.9531,-1.9526,-1.9563,-1.9632,-1.9657,-1.9679,-1.9755,-1.975,-1.9767,-1.9803,-1.9839,-1.9847,-1.9854,-1.9881,-1.9891,-1.9774,-1.9774,-1.9774,0,-1.9293,-1.9356,-1.9365,-1.9411,-1.9436,-1.9431,-1.948,-1.9504,-1.9552,-1.9569,-1.9554,-1.964,-1.9664,-1.9733,-1.9752,-1.977,-1.9783,-1.9763,-1.9845,-1.9853,-1.986,-1.9885,-1.9896,-1.9776,-1.9776,-1.9775,-1.9775,0,-1.9386,-1.943,-1.9465,-1.9511,-1.954,-1.9587,-1.9603,-1.9631,-1.9633,-1.9647,-1.9706,-1.9734,-1.9778,-1.9794,-1.9797,-1.9864,-1.9855,-1.9843,-1.9816,-1.9871,-1.9896,-1.9906,-1.9779,-1.9778,-1.9777,-1.9777,0,0,-1.9467,-1.9517,-1.953,-1.9551,-1.9591,-1.9625,-1.9672,-1.9715,-1.9739,-1.9772,-1.9811,-1.987,-1.9858,-1.9883,-1.9888,-1.992,-1.9978,-1.9903,-1.9904,-1.9916,-2.0053,-2.0063,-2.0074,-1.9974,-1.9976,-1.9978,-2.0051,0,-1.9537,-1.9621,-1.963,-1.9704,-1.9745,-1.9741,-1.9782,-1.9811,-1.9825,-1.9861,-1.9877,-1.9918,-1.99,-1.9915,-1.9946,-1.9964,-2.0006,-1.9959,-2.0011,-2.0013,-2.0002,-2.0087,-2.0097,-2.0164,-2.006,-2.0062,-2.0063,0,-1.9631,-1.9667,-1.9745,-1.9779,-1.9797,-1.9833,-1.9873,-1.9908,-1.9941,-1.9949,-1.9977,-1.9978,-2.0026,-1.9997,-2.0064,-2.0032,-2.0053,-2.0065,-2.0068,-2.0074,-2.0041,-2.0094,-2.0186,-2.0196,-2.0078,-2.0077,-2.0076,0,-1.9682,-1.9749,-1.9805,-1.9823,-1.9864,-1.989,-1.9909,-1.9939,-1.9965,-2.0,-2.0016,-2.0056,-2.0078,-2.0109,-2.0121,-2.0099,-2.0186,-2.0159,-2.0195,-2.0194,-2.0213,-2.0212,-2.031,-2.0227,-2.0227,-2.0227,-2.0227,0,-1.976,-1.9808,-1.9828,-1.9862,-1.9916,-1.9926,-1.9979,-1.9996,-2.0023,-2.006,-2.0059,-2.0094,-2.0107,-2.0144,-2.0153,-2.0207,-2.0217,-2.0225,-2.0227,-2.0225,-2.0224,-2.0239,-2.0235,-2.023,-2.0229,-2.0228,-2.0228,0,-1.9826,-1.9841,-1.9902,-1.9936,-1.9946,-1.9984,-2.0013,-2.0046,-2.0059,-2.0107,-2.0118,-2.014,-2.0183,-2.0198,-2.0251,-2.0257,-2.0319,-2.0317,-2.0308,-2.0308,-2.0343,-2.034,-2.0454,-2.047,-2.0377,-2.0378,-2.0379,0,-1.9874,-1.9911,-1.9949,-1.9974,-1.9994,-2.0034,-2.006,-2.0071,-2.0098,-2.0137,-2.0165,-2.0208,-2.0243,-2.0313,-2.0333,-2.0373,-2.0372,-2.041,-2.0378,-2.0375,-2.0373,-2.0371,-2.0374,-2.0416,-2.0416,-2.0417,-2.0418,0,-1.9959,-1.9965,-2.0002,-2.0042,-2.0073,-2.0105,-2.0136,-2.0157,-2.0172,-2.0203,-2.0247,-2.0274,-2.0328,-2.0371,-2.0411,-2.043,-2.0427,-2.0428,-2.0438,-2.0437,-2.043,-2.0434,-2.0324,-2.0425,-2.0424,-2.0424,-2.0423,-2.0423,-2.0018,-2.005,-2.0082,-2.0124,-2.0148,-2.0177,-2.021,-2.0228,-2.0265,-2.031,-2.0314,-2.0362,-2.0393,-2.0447,-2.0468,-2.0505,-2.0495,-2.051,-2.0514,-2.0517,-2.052,-2.0424,-2.0513,-2.0513,-2.0513,-2.0512,-2.0512,0,-2.0102,-2.0122,-2.016,-2.0204,-2.0237,-2.0231,-2.0265,-2.0292,-2.0334,-2.0364,-2.0399,-2.0449,-2.0491,-2.0514,-2.0556,-2.0581,-2.0581,-2.0592,-2.059,-2.0594,-2.0527,-2.0514,-2.0591,-2.0591,-2.0591,-2.0591,-2.0591,-2.0591,-2.015,-2.0204,-2.0214,-2.0281,-2.03,-2.0348,-2.0367,-2.0394,-2.0418,-2.0475,-2.0509,-2.0524,-2.0551,-2.0595,-2.0632,-2.0638,-2.0653,-2.0665,-2.067,-2.0607,-2.0599,-2.0591,-2.0579,-2.0669,-2.0669,-2.0734,-2.0735,-2.0735]}]]